Location: Davayat
(45.9471°N, 3.1105°E)
Time: 04:33:46
(UTC+00:00)

deb Delta 139 - Visible Passes

Search period start: 15 June 2021 00:00
Search period end: 25 June 2021 00:00
Orbit: 626 x 677 km, 98.8° (Epoch: 14 June)

Date Brightness Start Highest point End Pass type
(mag) Time Alt. Az. Time Alt. Az. Time Alt. Az.
15 Jun ? 21:53:54 10° NNE 21:58:25 56° E 22:00:30 30° SSE visible
15 Jun ? 23:31:30 10° NNW 23:34:39 19° WNW 23:37:45 10° WSW visible
16 Jun ? 20:46:37 10° ENE 20:48:16 12° E 20:49:54 10° ESE visible
16 Jun ? 22:20:55 10° NNE 22:25:31 80° WNW 22:27:52 28° SSW visible
17 Jun ? 00:00:06 10° NW 00:01:21 11° NW 00:02:35 10° WNW visible
17 Jun ? 21:12:08 10° NE 21:15:38 21° E 21:17:25 17° SE visible
17 Jun ? 22:48:08 10° N 22:52:29 43° WNW 22:55:15 20° SW visible
18 Jun ? 21:38:37 10° NNE 21:42:53 38° E 21:44:47 26° SSE visible
18 Jun ? 23:15:37 10° N 23:19:21 25° WNW 23:22:37 12° WSW visible
19 Jun ? 22:05:27 10° NNE 22:10:01 71° ESE 22:12:09 30° S visible
19 Jun ? 23:43:29 10° NNW 23:46:06 15° WNW 23:48:40 10° W visible
20 Jun ? 20:57:24 10° NE 20:59:56 15° E 21:01:41 12° ESE visible
20 Jun ? 22:32:32 10° N 22:37:02 63° WNW 22:39:31 25° SW visible
21 Jun ? 21:23:25 10° NE 21:27:15 26° E 21:29:02 20° SE visible
21 Jun ? 22:59:49 10° N 23:03:57 35° WNW 23:06:51 17° SW visible
22 Jun ? 21:50:03 10° NNE 21:54:26 48° E 21:56:23 29° SSE visible
22 Jun ? 23:27:24 10° NNW 23:30:45 21° WNW 23:34:03 10° WSW visible
23 Jun ? 22:16:58 10° NNE 22:21:30 88° E 22:23:42 30° SSW visible
23 Jun ? 23:55:36 10° NNW 23:57:27 12° WNW 23:59:17 10° W visible
24 Jun ? 21:08:25 10° NE 21:11:32 18° E 21:13:13 15° ESE visible
24 Jun ? 22:44:06 10° N 22:48:29 50° WNW 22:51:02 23° SW visible
